AirNav   ProFlight Series 2 Aviation Headset
 
 943 users online  

I19 Greene County-Lewis A Jackson Regional Airport
Dayton, Ohio, USA

GOING TO DAYTON?


FAA INFORMATION EFFECTIVE 18 JUNE 2020

Location

FAA Identifier: I19
Lat/Long: 39-41-26.6000N 083-59-34.0000W
39-41.443333N 083-59.566667W
39.6907222,-83.9927778
(estimated)
Elevation: 948.5 ft. / 289.1 m (surveyed)
Variation: 05W (1995)
From city: 10 miles E of DAYTON, OH
Time zone: UTC -4 (UTC -5 during Standard Time)
Zip code: 45385

Airport Operations

Airport use: Open to the public
Activation date: 10/1968
Control tower: no
ARTCC: INDIANAPOLIS CENTER
FSS: DAYTON FLIGHT SERVICE STATION
NOTAMs facility: DAY (NOTAM-D service available)
Attendance: NOV MAR 0800-1800, APR-OCT 0800-2000
UNATNDD CHRISTMAS, NEW YEARS & THANKSGIVING DAYS.
Wind indicator: lighted
Segmented circle: no
Lights: ACTVT LIRL RY 07/25 & REIL RYS 07 & 25 - CTAF.
Beacon: white-green (lighted land airport)
Operates sunset to sunrise.

Airport Communications

CTAF/UNICOM: 122.7
WX AWOS-3: 118.525 (937-372-4668)
COLUMBUS APPROACH: 118.85
COLUMBUS DEPARTURE: 118.85
CLASS C: 118.85
IC: 118.85
WX AWOS-3PT at SGH (11 nm NE): 134.975 (937-324-4532)
WX ASOS at MGY (12 nm SW): 118.375 (937-885-2171)
WX AWOS-3 at I66 (13 nm SE): 124.175 (937-382-1376)
WX ASOS at DAY (16 nm NW): PHONE 937-415-6819
WX AWOS-3 at I68 (18 nm SW): 120.55 (513-934-5500)
WX ASOS at ILN (18 nm SE): PHONE 937-383-7334

Nearby radio navigation aids

VOR radial/distance  VOR name  Freq  Var
MXQr335/18.0MIDWEST VOR/DME112.9004W
DQNr137/27.0DAYTON VOR/DME114.5001W
RODr181/35.9ROSEWOOD VORTAC117.5005W

 
NDB name  Hdg/Dist  Freq  Var  ID
CLARK COUNTY226/14.734104WCCJ -.-. -.-. .---
HOOK FIELD065/24.023904WHKF .... -.- ..-.
COURT HOUSE287/28.341406WCSS -.-. ... ...
CINCINNATI031/35.733504WLUK .-.. ..- -.-
SPORTYS020/38.324504WPWF .--. .-- ..-.

Airport Services

Fuel available: 100LL JET-A+
FUEL AVBL 24 HRS WITH CREDIT CARD CTC FBO - (937) 347-1302.
Parking: hangars and tiedowns
Airframe service: MAJOR
Powerplant service: MAJOR
Bulk oxygen: HIGH

Runway Information

Runway 7/25

Dimensions: 5004 x 75 ft. / 1525 x 23 m
Surface: asphalt, in excellent condition
Weight bearing capacity: 
Single wheel: 30.0
Runway edge lights: low intensity
RUNWAY 7  RUNWAY 25
Latitude: 39-41.256342N39-41.629478N
Longitude: 084-00.042808W083-59.091673W
Elevation: 909.5 ft.948.5 ft.
Traffic pattern: leftleft
Runway heading: 068 magnetic, 063 true248 magnetic, 243 true
Markings: nonprecision, in good conditionnonprecision, in good condition
Visual slope indicator: 2-light PAPI on left (3.50 degrees glide path)2-light PAPI on left (3.50 degrees glide path)
RWY 25 PAPI UNUSBL BYD 6 DEGS L OF CNTRLN.
Runway end identifier lights: yesyes
Touchdown point: yes, no lightsyes, no lights
Obstructions: 16 ft. trees, 565 ft. from runway, 100 ft. right of centerline, 22:1 slope to clearnone
+10' TREES AND BRUSH, 0'-199' FM RY END, 195'-250' R OF CNTRLN.

Airport Ownership and Management from official FAA records

Ownership: Publicly-owned
Owner: GREENE COUNTY REGNL ARPT AUTH
140 N VALLEY RD,
XENIA, OH 45385
Phone 937-376-8107
Manager: DAVE KUSHNER
140 N VALLEY RD,
XENIA, OH 45385
Phone 937-376-8107

Airport Operational Statistics

Aircraft based on the field: 73
Single engine airplanes: 64
Multi engine airplanes: 8
Helicopters: 1
    
Aircraft operations: avg 117/day *
91% local general aviation
9% transient general aviation
* for 12-month period ending 22 September 2018

Additional Remarks

BIRDS & DEER ON & INVOF ARPT.
COLUMBUS APCH CTL TEL# 614-338-8537.
EXTENSIVE FLIGHT TRAINING ACT.

Instrument Procedures

NOTE: All procedures below are presented as PDF files. If you need a reader for these files, you should download the free Adobe Reader.

NOT FOR NAVIGATION. Please procure official charts for flight.
FAA instrument procedures published for use from 18 June 2020 at 0901Z to 16 July 2020 at 0900Z.

 
IAPs - Instrument Approach Procedures
RNAV (GPS) RWY 07   download (267KB)
RNAV (GPS) RWY 25   download (271KB)
NOTE: Special Take-Off Minimums/Departure Procedures apply   download (232KB)

Other nearby airports with instrument procedures:

KFFO - Wright-Patterson Air Force Base (8 nm N)
KSGH - Springfield-Beckley Municipal Airport (11 nm NE)
KMGY - Dayton-Wright Brothers Airport (12 nm SW)
I66 - Clinton Field Airport (13 nm SE)
KDAY - James M Cox Dayton International Airport (16 nm NW)
I68 - Warren County Airport/John Lane Field (18 nm SW)
KILN - Wilmington Air Park (18 nm SE)
 
Loc | Ops | Rwys | IFR | FBO | Links
Com | Nav | Svcs | Stats | Notes
Area around I19 (Greene County-Lewis A Jackson Regional Airport)
 
Road maps at: MapQuest Bing Google
 
Aerial photo
WARNING: Photo may not be current or correct
Aerial photo of I19 (Greene County-Lewis A Jackson Regional Airport)
Photo by Anthony Springer
Photo taken 13-Jun-2018
looking northeast.

Do you have a better or more recent aerial photo of Greene County-Lewis A Jackson Regional Airport that you would like to share? If so, please send us your photo.

 
Sectional chart

 
Airport distance calculator
Flying to Greene County-Lewis A Jackson Regional Airport? Find the distance to fly.

From to I19

Sunrise and sunset
Times for 11-Jul-2020
 Local
(UTC-4)
 Zulu
(UTC)
Morning civil twilight05:4809:48
Sunrise06:1910:19
Sunset21:0401:04
Evening civil twilight21:3601:36

Current date and time
Zulu (UTC)  11-Jul-2020 21:19:17
Local (UTC-4)  11-Jul-2020 17:19:17
 
METAR
KFFO 
8nm N 
112056Z AUTO 27012KT 10SM SCT060 SCT070 31/15 A2986 RMK AO2 SLP108 T03050153 57006
KSGH 
11nm NE 
112056Z AUTO 30014G20KT 10SM SCT065 SCT080 30/17 A2988 RMK AO2 SLP109 T03000172 56007
KMGY 
12nm SW 
112053Z AUTO 28009G17KT 10SM FEW060 30/16 A2988 RMK AO2 SLP110 T03000156 57008
KDAY 
16nm NW 
112056Z 28010G19KT 10SM SCT060 31/17 A2989 RMK AO2 SLP111 T03060167 58007
KILN 
18nm SE 
112054Z AUTO 28012KT 10SM FEW065 30/16 A2988 RMK AO2 SLP105 T03000156 57006
KI68 
18nm SW 
112055Z AUTO 30008G18KT 10SM SCT060 31/16 A2990 RMK AO1 T03050161
TAF
KFFO 
8nm N 
111100Z 1111/1217 28009KT 9999 SKC QNH2985INS BECMG 1113/1114 29012G20KT 9999 FEW030 QNH2982INS BECMG 1123/1124 VRB06KT 9999 SCT055 QNH2974INS BECMG 1206/1207 VRB06KT 9000 -SHRA SCT025 BKN040 QNH2973INS TEMPO 1211/1215 23015G25KT -TSRA BKN025CB BKN040 TX30/1120Z TN21/1111Z
KDAY 
16nm NW 
111742Z 1118/1218 30012G20KT P6SM SCT060 FM120000 30007KT P6SM SCT060 FM120500 26005KT P6SM VCSH BKN060 FM120900 23004KT P6SM VCSH BKN050 FM121200 22005KT P6SM VCSH OVC025 FM121700 23005KT P6SM VCSH BKN040
KILN 
18nm SE 
111742Z 1118/1218 30012G20KT P6SM SCT060 FM120000 29007KT P6SM SCT060 FM120600 26005KT P6SM VCSH BKN060 FM121200 23005KT P6SM VCSH SCT025 BKN040
NOTAMs
Click for the latest NOTAMs
NOTAMs are issued by the DoD/FAA and will open in a separate window not controlled by AirNav.

 

 
 

FBO, Fuel Providers, and Aircraft Ground Support

  
 Business Name 
 
 Contact 
 
 Services / Description 
 
Fuel Prices
 
Comments
  
 MacAir Aviation
937-347-1302
[web site]
[email]
Aviation fuel, Aircraft ground handling, Aircraft parking (ramp or tiedown), Hangars, Hangar leasing / sales, Passenger terminal and lounge, ...
 
Certificated Pilot School   PSI FAA Test Center  
 
More info about MacAir Aviation
EPIC
100LL Jet A
AS $3.83 $3.49 
 Updated 02-Jul-2020
 
   6 read write
AS=Assisted/Self Service
Update Fuel Prices
 

Would you like to see your business listed on this page?

 If your business provides an interesting product or service to pilots, flight crews, aircraft, or users of the Greene County-Lewis A Jackson Regional Airport, you should consider listing it here.  To start the listing process, click on the button below
 
Add a business
 

Other Pages about Greene County-Lewis A Jackson Regional Airport

www.i19airport.com
 
Update a link
 
Copyright © AirNav, LLC. All rights reserved. Privacy Policy  Contact